Total_Precipitation_Accumulation
0.43 0.47 0.50 0.52 0.52 0.55 0.59 0.61 0.61 0.58 0.59 0.61 0.45 0.35 0.32 0.33 0.35 0.32 0.40 0.27 0.11 0.07 0.07 0.07 0.07 0.09 0.15 0.28 0.41 0.48 0.62 0.69 0.67 0.63 0.56 0.53 0.55 0.59
0.48 0.55 0.56 0.53 0.49 0.53 0.57 0.63 0.65 0.59 0.52 0.46 0.40 0.32 0.30 0.32 0.30 0.24 0.26 0.20 0.11 0.07 0.07 0.07 0.07 0.08 0.13 0.24 0.35 0.43 0.51 0.54 0.55 0.53 0.49 0.45 0.43 0.45
0.49 0.52 0.51 0.46 0.47 0.49 0.50 0.51 0.52 0.51 0.45 0.42 0.38 0.35 0.34 0.40 0.35 0.25 0.20 0.17 0.14 0.09 0.06 0.05 0.06 0.10 0.17 0.24 0.33 0.39 0.42 0.43 0.47 0.49 0.46 0.44 0.41 0.41
0.56 0.53 0.47 0.37 0.35 0.32 0.36 0.37 0.39 0.41 0.37 0.36 0.35 0.32 0.33 0.37 0.37 0.30 0.23 0.19 0.20 0.11 0.07 0.06 0.06 0.08 0.10 0.13 0.21 0.34 0.42 0.44 0.43 0.45 0.44 0.44 0.43 0.43
0.52 0.46 0.39 0.32 0.28 0.23 0.23 0.21 0.21 0.23 0.27 0.31 0.36 0.33 0.29 0.26 0.29 0.30 0.29 0.31 0.26 0.17 0.11 0.08 0.07 0.08 0.08 0.09 0.13 0.22 0.34 0.46 0.49 0.49 0.49 0.50 0.51 0.52
0.44 0.39 0.35 0.30 0.24 0.20 0.20 0.16 0.13 0.16 0.23 0.26 0.29 0.29 0.25 0.22 0.25 0.32 0.36 0.43 0.37 0.28 0.23 0.18 0.14 0.11 0.10 0.09 0.09 0.15 0.25 0.40 0.54 0.59 0.62 0.67 0.71 0.68
0.35 0.31 0.30 0.27 0.24 0.20 0.18 0.14 0.10 0.10 0.11 0.15 0.16 0.15 0.13 0.14 0.15 0.23 0.35 0.48 0.45 0.36 0.34 0.34 0.32 0.28 0.25 0.19 0.11 0.08 0.15 0.29 0.49 0.63 0.69 0.78 0.89 0.93
0.25 0.23 0.22 0.20 0.23 0.23 0.17 0.13 0.08 0.05 0.05 0.06 0.06 0.06 0.06 0.08 0.11 0.22 0.36 0.44 0.53 0.53 0.49 0.48 0.47 0.45 0.39 0.30 0.20 0.11 0.09 0.17 0.30 0.46 0.61 0.75 0.85 0.98
0.15 0.14 0.13 0.13 0.15 0.17 0.13 0.09 0.06 0.04 0.03 0.04 0.03 0.02 0.02 0.05 0.10 0.21 0.37 0.53 0.66 0.71 0.68 0.68 0.58 0.52 0.49 0.41 0.30 0.18 0.13 0.12 0.18 0.26 0.36 0.51 0.65 0.76
0.10 0.10 0.10 0.09 0.08 0.08 0.07 0.04 0.02 0.02 0.01 0.01 0.01 0.00 0.00 0.02 0.06 0.11 0.20 0.36 0.56 0.67 0.73 0.84 0.82 0.74 0.69 0.62 0.51 0.33 0.22 0.17 0.17 0.19 0.22 0.28 0.40 0.52
0.08 0.09 0.07 0.06 0.05 0.03 0.03 0.02 0.01 0.01 0.00 0.00 0.00 0.00 0.00 0.00 0.01 0.02 0.03 0.05 0.15 0.24 0.30 0.49 0.69 0.78 0.85 0.84 0.73 0.58 0.42 0.30 0.25 0.27 0.28 0.29 0.35 0.43
0.07 0.08 0.07 0.04 0.03 0.01 0.01 0.01 0.01 0.00 0.00 0.00 0.00 0.00 0.00 0.00 0.00 0.00 0.01 0.02 0.04 0.08 0.09 0.15 0.27 0.40 0.56 0.65 0.66 0.64 0.58 0.53 0.46 0.37 0.31 0.31 0.41 0.44
0.06 0.07 0.06 0.03 0.01 0.01 0.00 0.01 0.00 0.00 0.00 0.00 0.00 0.00 0.00 0.00 0.00 0.00 0.01 0.02 0.05 0.08 0.09 0.12 0.16 0.20 0.28 0.39 0.47 0.51 0.55 0.58 0.57 0.53 0.48 0.43 0.45 0.51
0.03 0.03 0.03 0.01 0.01 0.00 0.00 0.00 0.00 0.00 0.00 0.00 0.00 0.00 0.00 0.00 0.00 0.00 0.00 0.02 0.04 0.08 0.09 0.10 0.17 0.18 0.19 0.24 0.31 0.34 0.40 0.53 0.63 0.71 0.67 0.62 0.59 0.65
0.01 0.01 0.01 0.00 0.00 0.00 0.00 0.00 0.00 0.00 0.00 0.00 0.00 0.00 0.00 0.00 0.00 0.00 0.00 0.01 0.03 0.04 0.03 0.04 0.10 0.17 0.19 0.22 0.24 0.26 0.30 0.41 0.51 0.65 0.78 0.82 0.79 0.77
0.00 0.00 0.00 0.00 0.00 0.00 0.00 0.00 0.00 0.00 0.00 0.00 0.00 0.00 0.00 0.00 0.00 0.00 0.00 0.00 0.01 0.02 0.01 0.02 0.05 0.09 0.16 0.20 0.23 0.26 0.29 0.35 0.39 0.45 0.64 0.85 1.01 1.08
0.00 0.00 0.00 0.00 0.00 0.00 0.00 0.00 0.00 0.00 0.00 0.00 0.00 0.00 0.00 0.00 0.00 0.00 0.00 0.00 0.00 0.00 0.01 0.01 0.02 0.05 0.08 0.09 0.17 0.23 0.27 0.30 0.29 0.29 0.36 0.55 0.79 1.00
0.00 0.00 0.00 0.00 0.00 0.00 0.00 0.00 0.00 0.00 0.00 0.00 0.00 0.00 0.00 0.00 0.00 0.00 0.00 0.00 0.00 0.01 0.01 0.01 0.02 0.03 0.06 0.09 0.06 0.10 0.15 0.18 0.20 0.24 0.31 0.35 0.46 0.56
0.00 0.00 0.00 0.00 0.00 0.00 0.00 0.00 0.00 0.00 0.00 0.00 0.00 0.00 0.00 0.00 0.00 0.00 0.00 0.00 0.00 0.00 0.01 0.01 0.02 0.02 0.04 0.07 0.13 0.07 0.05 0.07 0.10 0.18 0.29 0.29 0.31 0.33
0.00 0.00 0.00 0.00 0.00 0.00 0.00 0.00 0.00 0.00 0.00 0.00 0.00 0.00 0.00 0.00 0.00 0.00 0.00 0.00 0.00 0.00 0.00 0.00 0.01 0.02 0.03 0.05 0.08 0.12 0.11 0.07 0.07 0.10 0.17 0.21 0.22 0.18
0.00 0.00 0.00 0.00 0.00 0.00 0.00 0.00 0.00 0.00 0.00 0.00 0.00 0.00 0.00 0.00 0.00 0.00 0.00 0.00 0.00 0.00 0.00 0.00 0.00 0.01 0.02 0.04 0.07 0.09 0.12 0.12 0.11 0.11 0.12 0.16 0.20 0.23
0.00 0.00 0.00 0.00 0.00 0.00 0.00 0.00 0.00 0.00 0.00 0.00 0.00 0.00 0.00 0.00 0.00 0.00 0.00 0.00 0.00 0.00 0.00 0.00 0.00 0.01 0.03 0.06 0.08 0.08 0.09 0.13 0.15 0.13 0.12 0.11 0.13 0.16
0.00 0.00 0.00 0.00 0.00 0.00 0.00 0.00 0.00 0.00 0.00 0.00 0.00 0.00 0.00 0.00 0.00 0.00 0.00 0.00 0.00 0.00 0.00 0.00 0.00 0.00 0.01 0.03 0.06 0.08 0.10 0.13 0.18 0.23 0.23 0.14 0.06 0.04